{"data":{"norad_id":59895,"intl_designator":"2024-100L","name":"STARLINK-31964","alt_names":[],"object_type":"PAYLOAD","status":"ACTIVE","operator":null,"country":"US","launch_date":"2024-05-28","launch_site_code":"AFETR","launch_vehicle":null,"mission":null,"orbit_class":"UNKNOWN","rcs_meters":null,"size_class":null,"mass_kg":null,"dimensions":null,"purposes":["comms"],"wikipedia_slug":null,"has_3d_model":false,"image_url":null,"decayed_at":null,"tle_current":{"epoch":"2026-09-21T20:49:00.915744Z","epoch_age_seconds":56350,"freshness":"FRESH","line1":"1 59895U 24100L   26264.86737171  .00000057  00000+0  11616-4 0  9993","line2":"2 59895  43.0036  97.1485 0001777 273.6197  86.4451 15.27576992131113","mean_motion":15.27576992,"eccentricity":0.0001777,"inclination_deg":43.0036,"raan_deg":97.1485,"arg_perigee_deg":273.6197,"mean_anomaly_deg":86.4451,"bstar":1.1616e-5,"rev_number":13111,"period_min":94.266934337278,"perigee_km":481.83886871874,"apogee_km":484.27733745837,"semimajor_km":6861.1951030886,"source":"CELESTRAK","updated_at":"2026-09-22T09:00:49.107604Z"}}}